Location: Pedimozza
(42.0500°N, 9.3500°E)
Time: 17:51:24
(UTC+00:00)

SL-24 R/B - Pass Details

Date: 19 August 2019
Orbit: 717 x 1116 km, 91.9° (Epoch: 22 September)

Event Time Altitude Azimuth Distance (km) Brightness Sun altitude
Exits shadow 20:06:37 19° 182° (S) 1,699 6.0 -18.7°
Maximum altitude 20:10:08 75° 266° (W) 746 4.5 -19.2°
Drops below altitude 10° 20:15:00 10° 352° (N) 2,227 7.5 -19.9°
Sets 20:17:20 0° 354° (N) 3,175 8.4 -20.2°
